Regional Weather Roundup
Issued by NWS

Home | Current Version | Previous Version | Graphics & Text | Print | Product List | Glossary On
Versions: 1 2 3 4 5 6 7 8 9 10 11 12 13 14 15 16 17 18 19 20 21 22 23 24 25 26 27 28 29 30 31 32 33 34 35 36 37 38 39 40 41 42 43 44 45 46 47 48 49 50
000
ASUS43 KLSX 231607
RWRMO

WEATHER SUMMARY FOR MISSOURI
NATIONAL WEATHER SERVICE SPRINGFIELD MO
1100 AM CDT SAT AUG 23 2014

NOTE: "FAIR" INDICATES FEW OR NO CLOUDS BELOW 12,000 FEET WITH NO
       SIGNIFICANT WEATHER AND/OR OBSTRUCTIONS TO VISIBILITY.
       CURRENT SKY AND/OR WEATHER CONDITIONS ARE NOT AVAILABLE FOR
       CHILLICOTHE AND FARMINGTON.

MOZ001>031-035>038-043-044-053-054-231700-
...NORTHERN AND WESTERN MISSOURI...

CITY           SKY/WX    TMP DP  RH WIND       PRES   REMARKS
KANSAS CTY INT MOSUNNY   86  71  60 S8        29.92F HX  91
KANSAS C DTWN  SUNNY     87  70  56 S8        29.91S HX  92
LEE`S SUMMIT   SUNNY     85  70  60 SW8       29.94S
ST JOSEPH      SUNNY     86  72  62 SE13      29.89F HX  92
CHILLICOTHE      N/A     86  74  67 S7        29.92F HX  94
KIRKSVILLE     PTSUNNY   81  73  76 SE12      29.95F

$$
MOZ066>068-077>081-088>096-101>105-231700-
...SOUTHWEST MISSOURI...

CITY           SKY/WX    TMP DP  RH WIND       PRES   REMARKS
SPRINGFIELD    SUNNY     91  67  44 SW10      30.01F HX  94
JOPLIN         SUNNY     90  67  46 S12       29.99F HX  93

$$
MOZ032>034-039>042-045>050-055>058-069>072-231700-
...CENTRAL MISSOURI...

CITY           SKY/WX    TMP DP  RH WIND       PRES   REMARKS
COLUMBIA       SUNNY     90  72  55 W7        29.97S HX  97
JEFFERSON CITY SUNNY     90  71  53 SW7       29.95F HX  96
ROLLA          SUNNY     88  72  58 SW7       29.99F HX  94
SEDALIA        SUNNY     88  71  57 SW12      29.96S HX  94
WHITEMAN AFB   MOSUNNY   86  67  52 S9        29.94S
OSAGE BEACH    SUNNY     90  70  51 W8        29.98F HX  95

$$
MOZ051-052-059>065-231700-
...EAST CENTRAL MISSOURI...

CITY           SKY/WX    TMP DP  RH WIND       PRES   REMARKS
ST LOUIS INTL  MOSUNNY   94  74  52 W12       29.97S HX 104
SPIRIT OF STL  MOSUNNY   90  73  57 W7        29.96S HX  98
ST CHARLES     SUNNY     90  73  57 W7        29.95S HX  98

$$
MOZ072>076-082>087-097>100-106>115-231700-
...SOUTH CENTRAL AND SOUTHEAST MISSOURI...

CITY           SKY/WX    TMP DP  RH WIND       PRES   REMARKS
CAPE GIRARDEAU SUNNY     89  76  65 VRB3      29.99S HX 100
FARMINGTON     SUNNY     91  70  49 NW7       30.03S HX  97
POPLAR BLUFF   SUNNY     93  72  50 NW7       29.99R HX 101
WEST PLAINS    SUNNY     89  70  53 W9        30.05F HX  94

$$


USA.gov is the U.S. government's official web portal to all federal, state and local government web resources and services.